sat.trackr.live / text

‹ back to catalog

STRIX-5

NORAD 65971 · 2025-229A

PAYLOAD ACTIVE UNKNOWN

§ Identity

Operator
Country
JPN
Launch date
2025-10-14
Launch site
RLLB
Launch vehicle
Mass (kg)
RCS (m²)

External: N2YO · Heavens-Above · Gunter

§ Orbital elements

Epoch: 2026-05-25T03:07:10.971840Z

Period
95.73 min
Inclination
41.9293°
Eccentricity
0.0038663
Mean motion
15.04184365 rev/d
Perigee alt
527.2 km
Apogee alt
580.8 km
Semi-major
6,932.1 km
B*
2.6876e-4
RAAN
55.2250°
Arg perigee
261.7486°
Mean anomaly
97.8954°
Rev number
3,350

§ Raw data

STRIX-51 65971U 25229A   26145.12998810  .00003662  00000+0  26876-3 0  99922 65971  41.9293  55.2250 0038663 261.7486  97.8954 15.04184365 33507

JSON: /api/v1/satellites/65971 · /tle

For live sub-satellite position, see the globe view (requires WebGL).

§ Visibility from observer

Set your observer location to see the next 7 days of passes ≥ 10°. The values pass through the URL so the page stays shareable.

No JS? Fill the form by hand. The geolocation button needs JavaScript.